Tracking 18852 objects as of 24-Nov-2017
HD Live streaming from Space Station
objects crossing your sky now

FENGYUN 1C DEB

Track FENGYUN 1C DEB now!
10-day predictions


NORAD ID: 30755
Int'l Code: 1999-025ATR
Perigee: 656.0 km
Apogee: 904.4 km
Inclination: 98.5 °
Period: 100.3 minutes
Semi major axis: 7151 km
RCS: 0.0033 m2 (small)
Launch date: May 10, 1999
Source: People's Republic of China (PRC)
Launch site: Taiyaun Space Center, China (TSC)

Note: This is SATELLITE DEBRIS
aabbcc
Your satellite tracking list
Your tracking list is empty




NASA's NSSDC Master Catalog

Two Line Element Set (TLE):
1 30755U 99025ATR 17327.64075236 +.00000327 +00000-0 +10909-3 0  9992
2 30755 098.4644 013.6577 0173683 096.6014 054.4204 14.35616835561801
Source of the keplerian elements: AFSPC